Regional Weather Roundup
Issued by NWS

Home | Current Version | Previous Version | Graphics & Text | Print | Product List | Glossary On
Versions: 1 2 3 4 5 6 7 8 9 10 11 12 13 14 15 16 17 18 19 20 21 22 23 24 25 26 27 28 29 30 31 32 33 34 35 36 37 38 39 40 41 42 43 44 45 46 47 48 49 50
000
ASUS43 KBIS 240420
RWRND

NORTH DAKOTA REGIONAL WEATHER ROUNDUP
NATIONAL WEATHER SERVICE BISMARCK ND
1100 PM CDT WED JUL 23 2014

NOTE: "FAIR" INDICATES FEW OR NO CLOUDS BELOW 12,000 FEET WITH NO
SIGNIFICANT WEATHER AND/OR OBSTRUCTIONS TO VISIBILITY.


NDZ001>003-009>011-017-240500-
NORTHWEST NORTH DAKOTA

CITY           SKY/WX    TMP DP  RH WIND       PRES   REMARKS
WILLISTON      MOCLDY    75  63  66 SE12      29.99F
MINOT          CLEAR     67  63  87 E10       30.09F
MINOT AFB      CLEAR     66  66  99 E14       30.09F
$$

NDZ018>021-031>035-040>046-240500-
SOUTHWEST NORTH DAKOTA

CITY           SKY/WX    TMP DP  RH WIND       PRES   REMARKS
BISMARCK       PTCLDY    71  59  65 SE12      30.10S
DICKINSON      PTCLDY    68  58  70 SE13      30.04F
GARRISON         N/A     71  64  78 SE13G21   30.08F
HETTINGER ARPT CLEAR     70  54  56 E15G24    30.07S
$$

NDZ004>008-012>016-024-026-027-054-240500-
NORTHEAST NORTH DAKOTA

CITY           SKY/WX    TMP DP  RH WIND       PRES   REMARKS
GRAND FORKS    PTCLDY    63  58  83 CALM      30.17S
GRND FRKS AFB  CLEAR     64  59  82 NE1       30.18F
DEVILS LAKE    CLEAR     64  57  77 SE10      30.15F
$$

NDZ022-023-025-028>030-036>039-047>053-240500-
SOUTHEAST NORTH DAKOTA

CITY           SKY/WX    TMP DP  RH WIND       PRES   REMARKS
FARGO          CLEAR     65  59  81 NE3       30.17S
JAMESTOWN      CLEAR     66  60  81 E8        30.16S
$$




USA.gov is the U.S. government's official web portal to all federal, state and local government web resources and services.